Hourly Data Report for July 07, 2021

POND INLET A
NUNAVUT
Current Station Operator: NAVCAN

72°41'22.000" N
77°58'08.000" W
61.60 m
2403206
71095
YIO

Download Data

Hourly Data (July 2021)
Hourly Data Report for July 7, 2021
TIME
LST
Temp Definition
°C
Dew Point Definition
°C
Rel Hum Definition
%
Precip. Amount Definition
mm

Wind Dir Definition
10's deg

Wind Spd Definition
km/h
Visibility Definition
km
Stn Press Definition
kPa
Hmdx Definition


Wind Chill Definition


Weather Definition


00:00 3.6 0.5 80 0.0 19 8 16.1 99.45     LegendNANA
01:00 3.3 0.5 82 0.0 19 4 16.1 99.42     LegendNANA
02:00 2.4 0.7 88 0.0 22 4 16.1 99.42     LegendNANA
03:00 3.5 1.0 84 0.0 24 4 16.1 99.39     LegendNANA
04:00 2.5 0.6 87 0.0 LegendMM 4 16.1 99.39     LegendNANA
05:00 2.4 0.3 86 0.0 LegendMM 4 16.1 99.39     LegendNANA
06:00 4.4 0.4 75 0.0 LegendMM 4 16.1 99.39     LegendNANA
07:00 4.2 0.4 76 0.0 26 5 16.1 99.38     LegendNANA
08:00 3.9 0.5 78 0.0 25 9 16.1 99.38     LegendNANA
09:00 4.4 0.7 77 0.0 25 9 9.7 99.35     Haze
10:00 4.6 0.2 73 0.0 LegendMM LegendMM LegendMM 99.34     LegendNANA
11:00 5.8 0.6 69 0.0 LegendMM LegendMM LegendMM 99.32     LegendNANA
12:00
13:00 5.4 0.9 73 0.0 35 8 8.1 99.30     Haze
14:00 6.1 0.7 68 0.0 3 8 16.1 99.32     LegendNANA
15:00 9.6 0.4 53 0.0 4 11 16.1 99.32     LegendNANA
16:00 10.4 -0.5 47 0.0 4 11 16.1 99.34     LegendNANA
17:00 9.8 -0.3 49 0.0 4 5 16.1 99.35     LegendNANA
18:00 10.2 -0.4 48 0.0 5 11 16.1 99.38     LegendNANA
19:00 LegendMM LegendMM LegendMM LegendMM LegendMM LegendMM LegendMM LegendMM     LegendNANA
20:00 7.6 0.4 60 0.0 4 9 16.1 99.41     LegendNANA
21:00 8.4 0.2 56 0.0 2 8 16.1 99.41     LegendNANA
22:00 4.7 1.4 79 0.0 24 8 16.1 99.43     LegendNANA
23:00 4.5 1.1 79 0.0 19 8 16.1 99.44     LegendNANA

Notes on Data Quality.

Legend

  • E = Estimated
  • M = Missing
  • NA = Not Available*
  • [empty] = Indicates an unobserved value
Date modified: